PDT,Max TemperatureF,Mean TemperatureF,Min TemperatureF,Max Dew PointF,MeanDew PointF,Min DewpointF,Max Humidity, Mean Humidity, Min Humidity, Max Sea Level PressureIn, Mean Sea Level PressureIn, Min Sea Level PressureIn, Max VisibilityMiles, Mean VisibilityMiles, Min VisibilityMiles, Max Wind SpeedMPH, Mean Wind SpeedMPH, Max Gust SpeedMPH,PrecipitationIn, CloudCover, Events, WindDirDegrees
2011-10-1,61,53,46,54,50,44,100,89,58,30.03,29.94,29.86,10,9,3,9,3,,0.01,7,,224
2011-10-2,64,54,45,55,51,45,97,86,64,30.02,29.93,29.86,10,9,1,9,3,,0.30,6,Rain,155
2011-10-3,63,57,51,54,51,46,100,86,54,29.89,29.84,29.81,10,10,8,14,4,,0.10,7,Rain,165
2011-10-4,63,54,45,50,47,41,99,80,48,29.83,29.62,29.46,10,10,9,16,5,25,0.03,6,Rain,175
2011-10-5,56,52,48,50,48,45,100,86,67,29.80,29.57,29.43,10,9,1,10,4,,0.24,7,Rain,193
2011-10-6,57,52,48,52,49,46,100,91,72,30.12,29.95,29.78,10,10,6,7,3,,0.02,8,Rain,192
2011-10-7,57,54,50,54,51,48,100,93,82,30.27,30.16,30.08,10,8,0,10,7,,0.06,8,Fog-Rain,189
2011-10-8,66,56,46,55,49,46,100,93,55,30.28,30.21,30.11,10,4,0,12,3,,0.04,5,Fog-Rain,129
2011-10-9,57,53,48,54,52,48,100,95,77,30.15,30.06,29.87,10,9,2,9,3,,0.07,8,Rain,243
2011-10-10,60,54,48,56,52,48,100,94,82,29.83,29.62,29.53,10,7,0,17,5,24,0.15,7,Fog-Rain,155
2011-10-11,58,54,51,55,52,49,95,90,82,30.15,29.83,29.58,10,9,2,22,11,28,0.99,7,Rain,195
2011-10-12,60,52,44,50,47,45,100,90,58,30.29,30.24,30.11,10,8,1,10,7,18,0.05,4,Rain,179
2011-10-13,57,48,41,50,44,41,100,95,60,30.30,30.22,30.09,10,4,0,13,2,,0.01,6,Fog,72
2011-10-14,58,52,45,48,47,45,100,87,70,30.09,30.03,29.99,10,10,9,8,3,,0.02,6,Rain,25
2011-10-15,53,44,35,50,41,36,100,98,77,30.17,30.06,30.03,10,2,0,8,2,,0.00,2,Fog-Rain,97
2011-10-16,52,43,35,46,39,36,100,97,75,30.38,30.28,30.06,10,3,0,5,2,,0.00,2,Fog,126
2011-10-17,59,45,32,46,39,32,100,86,60,30.48,30.40,30.31,10,6,0,10,4,,0.00,2,Fog,49
2011-10-18,67,50,33,49,39,34,100,91,46,30.34,30.19,29.99,10,5,0,8,2,,0.00,1,Fog,124
2011-10-19,59,50,39,54,47,39,100,90,68,30.15,30.04,29.95,10,8,1,17,5,26,0.00,5,Rain,196
2011-10-20,61,52,44,50,48,45,100,88,66,30.17,30.11,30.09,10,9,0,8,5,,0.01,6,Fog,202
2011-10-21,59,52,46,55,52,45,100,94,76,30.27,30.18,30.11,10,8,0,14,5,,0.11,8,Fog-Rain,185
2011-10-22,61,58,55,61,58,54,100,96,90,30.24,30.17,30.15,10,8,2,16,9,22,0.45,8,Rain,209
2011-10-23,57,47,37,54,46,37,100,95,69,30.23,30.20,30.14,10,5,0,8,2,,0.00,3,Fog,162
2011-10-24,55,46,35,46,41,35,100,89,55,30.43,30.30,30.17,10,9,2,7,4,,0.00,4,,166
2011-10-25,54,42,30,43,37,31,100,91,65,30.52,30.43,30.17,10,6,0,12,2,,0.00,2,Fog,51
2011-10-26,51,40,29,42,36,28,100,87,55,30.45,30.32,30.23,10,8,0,7,3,,0.00,4,,162
2011-10-27,53,44,35,43,39,34,100,91,65,30.37,30.30,30.13,10,7,0,9,3,,0.00,5,Fog,68
2011-10-28,58,48,37,52,47,34,100,89,47,30.13,29.98,29.89,10,8,2,20,9,23,0.24,6,Rain,201
2011-10-29,57,47,37,50,41,37,100,96,67,30.32,30.23,30.16,10,3,0,9,3,,0.00,1,Fog,152
2011-10-30,58,46,33,59,46,34,100,97,82,30.27,30.11,30.05,10,6,0,16,3,,0.18,6,Fog-Rain,186
2011-10-31,55,45,36,44,40,36,100,89,64,30.52,30.42,30.29,10,7,0,12,5,,0.00,2,Fog,171